Location: Newark
(13.6797°N, 8.5297°E)
Time: 17:10:58
(UTC+00:00)

A-11 Canister half - Pass Details

Date: 20 January 2020
Orbit: 1517 x 1683 km, 47.2° (Epoch: 21 February)

Event Time Altitude Azimuth Distance (km) Brightness Sun altitude
Rises 06:57:27 0° 330° (NNW) 4,672 11.0 13.5°
Reaches altitude 10° 07:00:52 10° 339° (NNW) 3,704 10.6 14.2°
Maximum altitude 07:09:13 35° 42° (NE) 2,318 10.3 16.0°
Drops below altitude 10° 07:17:45 10° 105° (ESE) 3,811 13.1 17.9°
Sets 07:21:17 0° 114° (ESE) 4,822 13.3 18.7°
